DAL1060 KATL-KAUS

Flight info

Callsign DAL1060
Flight time N/A
Altitude 34000
Route POUNC2 GRGIA GARTS LCH WEEED WLEEE7
Aircraft B739/M-SDE2E3FGHIRWXY/LB1

Departure

Time 2026-05-07 20:48
Airport Hartsfield Jackson Atlanta International Airport (KATL)

Arrival

Time N/A
Airport Austin Bergstrom International Airport (KAUS)
Time Latitude Longitude Altitude Speed Heading
2026-05-07 20:30 33.63964 -84.44193 1005 ft 0 kts 270°
2026-05-07 20:36 33.63963 -84.44168 1005 ft 4 kts 278°
2026-05-07 20:36 33.63956 -84.44137 1005 ft 4 kts 300°
2026-05-07 20:36 33.63940 -84.44116 1005 ft 4 kts 347°
2026-05-07 20:37 33.63933 -84.44115 1005 ft 1 kts 360°
2026-05-07 20:40 33.63934 -84.44115 1005 ft 1 kts 360°
2026-05-07 20:40 33.63949 -84.44115 1005 ft 5 kts 359°
2026-05-07 20:40 33.64004 -84.44116 1005 ft 11 kts 359°
2026-05-07 20:40 33.64085 -84.44116 1005 ft 12 kts 360°
2026-05-07 20:41 33.64164 -84.44117 1005 ft 11 kts 359°
2026-05-07 20:41 33.64241 -84.44119 1005 ft 11 kts 358°
2026-05-07 20:41 33.64316 -84.44117 1005 ft 11 kts
2026-05-07 20:41 33.64388 -84.44109 1005 ft 10 kts 22°
2026-05-07 20:42 33.64420 -84.44037 1005 ft 11 kts 79°
2026-05-07 20:42 33.64433 -84.43939 1005 ft 13 kts 81°
2026-05-07 20:42 33.64449 -84.43804 1005 ft 19 kts 83°
2026-05-07 20:42 33.64459 -84.43630 1005 ft 21 kts 89°
2026-05-07 20:43 33.64459 -84.43457 1005 ft 20 kts 90°
2026-05-07 20:43 33.64460 -84.43288 1006 ft 20 kts 90°
2026-05-07 20:43 33.64460 -84.43125 1006 ft 19 kts 90°
2026-05-07 20:43 33.64460 -84.42967 1005 ft 19 kts 90°
2026-05-07 20:44 33.64460 -84.42865 1005 ft 18 kts 90°
2026-05-07 20:44 33.64464 -84.42716 1005 ft 18 kts 84°
2026-05-07 20:44 33.64468 -84.42571 1005 ft 17 kts 90°
2026-05-07 20:44 33.64470 -84.42418 1005 ft 20 kts 90°
2026-05-07 20:45 33.64514 -84.42176 1005 ft 24 kts 62°
2026-05-07 20:45 33.64542 -84.41990 1005 ft 23 kts 90°
2026-05-07 20:45 33.64543 -84.41804 1005 ft 22 kts 90°
2026-05-07 20:45 33.64543 -84.41678 1006 ft 22 kts 90°
2026-05-07 20:46 33.64543 -84.41488 1006 ft 24 kts 90°
2026-05-07 20:46 33.64543 -84.41284 1006 ft 25 kts 90°
2026-05-07 20:46 33.64543 -84.41075 1006 ft 25 kts 90°
2026-05-07 20:46 33.64542 -84.40877 1005 ft 23 kts 90°
2026-05-07 20:47 33.64571 -84.40693 1005 ft 22 kts 87°
2026-05-07 20:47 33.64639 -84.40567 1003 ft 10 kts
2026-05-07 20:47 33.64675 -84.40598 1003 ft 7 kts 295°
2026-05-07 20:47 33.64680 -84.40705 1003 ft 37 kts 269°
2026-05-07 20:48 33.64680 -84.41354 1008 ft 115 kts 270°
2026-05-07 20:48 33.64691 -84.42566 1136 ft 164 kts 274°
2026-05-07 20:48 33.64725 -84.44018 1752 ft 187 kts 272°
2026-05-07 20:48 33.64707 -84.45599 2746 ft 192 kts 272°
2026-05-07 20:49 33.64948 -84.47204 3415 ft 206 kts 284°
2026-05-07 20:49 33.65272 -84.48980 3841 ft 225 kts 282°
2026-05-07 20:49 33.65610 -84.50818 4482 ft 227 kts 282°
2026-05-07 20:49 33.65957 -84.52673 5123 ft 228 kts 282°
2026-05-07 20:50 33.66297 -84.54498 5868 ft 224 kts 281°
2026-05-07 20:50 33.66639 -84.56337 6491 ft 228 kts 281°
2026-05-07 20:50 33.66977 -84.58177 7220 ft 224 kts 281°
2026-05-07 20:50 33.67298 -84.60009 7882 ft 225 kts 280°
2026-05-07 20:51 33.67621 -84.61919 8212 ft 243 kts 280°
2026-05-07 20:51 33.67961 -84.63937 8880 ft 248 kts 280°
2026-05-07 20:51 33.68304 -84.65962 9731 ft 248 kts 280°
2026-05-07 20:51 33.68663 -84.68018 10380 ft 255 kts 280°
2026-05-07 20:52 33.69051 -84.70225 10519 ft 283 kts 281°
2026-05-07 20:52 33.69451 -84.72637 10700 ft 306 kts 279°
2026-05-07 20:52 33.69459 -84.75267 10835 ft 327 kts 260°
2026-05-07 20:52 33.68728 -84.77942 10998 ft 349 kts 246°
2026-05-07 20:53 33.67364 -84.80411 11401 ft 360 kts 239°
2026-05-07 20:53 33.65859 -84.82814 12035 ft 359 kts 239°
2026-05-07 20:53 33.64351 -84.85184 12701 ft 357 kts 239°
2026-05-07 20:53 33.62872 -84.87515 13277 ft 359 kts 240°
2026-05-07 20:54 33.61348 -84.89931 13874 ft 359 kts 240°
2026-05-07 20:54 33.59868 -84.92295 14373 ft 359 kts 240°
2026-05-07 20:54 33.58376 -84.94689 14878 ft 358 kts 240°
2026-05-07 20:54 33.56883 -84.97089 15353 ft 359 kts 240°
2026-05-07 20:55 33.55389 -84.99489 15804 ft 360 kts 240°
2026-05-07 20:55 33.53889 -85.01903 16270 ft 360 kts 240°
2026-05-07 20:55 33.52392 -85.04310 16738 ft 360 kts 239°
2026-05-07 20:55 33.50893 -85.06721 17206 ft 360 kts 239°
2026-05-07 20:56 33.49394 -85.09129 17624 ft 361 kts 239°
2026-05-07 20:56 33.47888 -85.11546 18014 ft 363 kts 239°
2026-05-07 20:56 33.46373 -85.13975 18400 ft 364 kts 239°
2026-05-07 20:56 33.44856 -85.16406 18716 ft 366 kts 239°
2026-05-07 20:57 33.43343 -85.18829 18988 ft 368 kts 239°
2026-05-07 20:57 33.41959 -85.21394 19253 ft 365 kts 248°
2026-05-07 20:57 33.41097 -85.24237 19537 ft 363 kts 255°
2026-05-07 20:57 33.40394 -85.27138 19830 ft 364 kts 256°
2026-05-07 20:58 33.39694 -85.30065 20065 ft 367 kts 256°
2026-05-07 20:58 33.38985 -85.33012 20305 ft 369 kts 256°
2026-05-07 20:58 33.38266 -85.35972 20580 ft 370 kts 255°
2026-05-07 20:58 33.37546 -85.38914 20823 ft 372 kts 255°
2026-05-07 20:59 33.36810 -85.41900 21065 ft 374 kts 255°
2026-05-07 20:59 33.36070 -85.44891 21269 ft 377 kts 255°
2026-05-07 20:59 33.35320 -85.47914 21479 ft 379 kts 255°
2026-05-07 20:59 33.34569 -85.50936 21729 ft 380 kts 255°
2026-05-07 21:00 33.33813 -85.53969 21973 ft 381 kts 255°
2026-05-07 21:00 33.33056 -85.57007 22195 ft 382 kts 255°
2026-05-07 21:00 33.32295 -85.60059 22387 ft 384 kts 255°
2026-05-07 21:00 33.31529 -85.63126 22582 ft 385 kts 255°
2026-05-07 21:01 33.30761 -85.66198 22779 ft 386 kts 255°
2026-05-07 21:01 33.29990 -85.69282 22972 ft 388 kts 255°
2026-05-07 21:01 33.29224 -85.72338 23149 ft 389 kts 255°
2026-05-07 21:01 33.28446 -85.75438 23328 ft 390 kts 255°
2026-05-07 21:02 33.27662 -85.78561 23491 ft 392 kts 255°
2026-05-07 21:02 33.26876 -85.81681 23650 ft 393 kts 255°
2026-05-07 21:02 33.26087 -85.84810 23802 ft 393 kts 255°
2026-05-07 21:02 33.25294 -85.87952 23968 ft 394 kts 255°
2026-05-07 21:03 33.24503 -85.91083 24104 ft 395 kts 255°
2026-05-07 21:03 33.23709 -85.94224 24257 ft 395 kts 255°
2026-05-07 21:03 33.22913 -85.97370 24375 ft 396 kts 255°
2026-05-07 21:03 33.22114 -86.00522 24529 ft 396 kts 255°
2026-05-07 21:04 33.21313 -86.03683 24670 ft 397 kts 255°
2026-05-07 21:04 33.20512 -86.06834 24775 ft 397 kts 255°
2026-05-07 21:04 33.19722 -86.09943 24896 ft 398 kts 255°
2026-05-07 21:04 33.18917 -86.13106 25009 ft 399 kts 255°
2026-05-07 21:05 33.18109 -86.16278 25150 ft 399 kts 255°
2026-05-07 21:05 33.17300 -86.19446 25268 ft 400 kts 255°
2026-05-07 21:05 33.16487 -86.22630 25379 ft 401 kts 255°
2026-05-07 21:05 33.15673 -86.25813 25534 ft 401 kts 255°
2026-05-07 21:06 33.14857 -86.29000 25644 ft 401 kts 255°
2026-05-07 21:06 33.14039 -86.32187 25749 ft 401 kts 255°
2026-05-07 21:06 33.13223 -86.35367 25897 ft 400 kts 255°
2026-05-07 21:06 33.12407 -86.38544 26045 ft 400 kts 255°
2026-05-07 21:07 33.11593 -86.41710 26193 ft 399 kts 255°
2026-05-07 21:07 33.10778 -86.44878 26331 ft 399 kts 255°
2026-05-07 21:07 33.09961 -86.48047 26379 ft 401 kts 255°
2026-05-07 21:07 33.09151 -86.51186 26455 ft 402 kts 255°
2026-05-07 21:08 33.08241 -86.54326 26604 ft 403 kts 248°
2026-05-07 21:08 33.06792 -86.57212 26794 ft 408 kts 239°
2026-05-07 21:08 33.04880 -86.59750 27001 ft 416 kts 229°
2026-05-07 21:08 33.02668 -86.62002 27197 ft 418 kts 227°
2026-05-07 21:09 33.00423 -86.64204 27365 ft 418 kts 227°
2026-05-07 21:09 32.98174 -86.66391 27582 ft 417 kts 227°
2026-05-07 21:09 32.95934 -86.68573 27833 ft 415 kts 227°
2026-05-07 21:09 32.93699 -86.70762 28023 ft 416 kts 227°
2026-05-07 21:10 32.91470 -86.72956 28215 ft 415 kts 227°
2026-05-07 21:10 32.89249 -86.75150 28440 ft 415 kts 228°
2026-05-07 21:10 32.87032 -86.77344 28700 ft 414 kts 228°
2026-05-07 21:10 32.84823 -86.79533 28916 ft 413 kts 228°
2026-05-07 21:11 32.82638 -86.81698 29046 ft 415 kts 227°
2026-05-07 21:11 32.80407 -86.83910 29156 ft 418 kts 227°
2026-05-07 21:11 32.75957 -86.88312 29716 ft 415 kts 227°
2026-05-07 21:12 32.73741 -86.90500 29999 ft 414 kts 227°
2026-05-07 21:12 32.71522 -86.92690 30236 ft 413 kts 227°
2026-05-07 21:12 32.69312 -86.94869 30550 ft 411 kts 227°
2026-05-07 21:12 32.67126 -86.97023 30907 ft 407 kts 227°
2026-05-07 21:13 32.64957 -86.99158 31273 ft 403 kts 227°
2026-05-07 21:13 32.62827 -87.01254 31593 ft 402 kts 227°
2026-05-07 21:13 32.60684 -87.03364 31902 ft 400 kts 227°
2026-05-07 21:13 32.58521 -87.05493 32239 ft 398 kts 228°
2026-05-07 21:14 32.56419 -87.07559 32468 ft 397 kts 227°
2026-05-07 21:14 32.54281 -87.09661 32718 ft 397 kts 227°
2026-05-07 21:14 32.52155 -87.11749 33062 ft 395 kts 227°
2026-05-07 21:14 32.50047 -87.13817 33378 ft 393 kts 227°
2026-05-07 21:15 32.47942 -87.15881 33658 ft 392 kts 228°
2026-05-07 21:15 32.45838 -87.17942 33907 ft 391 kts 228°
2026-05-07 21:15 32.41637 -87.22057 33954 ft 392 kts 228°
2026-05-07 21:16 32.37466 -87.26136 33965 ft 390 kts 228°
2026-05-07 21:16 32.33296 -87.30207 33955 ft 390 kts 228°
2026-05-07 21:17 32.29115 -87.34287 33948 ft 390 kts 227°
2026-05-07 21:17 32.24923 -87.38372 33943 ft 391 kts 227°
2026-05-07 21:18 32.20715 -87.42466 33973 ft 393 kts 227°
2026-05-07 21:18 32.16496 -87.46565 33970 ft 394 kts 227°
2026-05-07 21:19 32.12259 -87.50677 33978 ft 394 kts 227°
2026-05-07 21:19 32.08221 -87.54590 33967 ft 395 kts 227°
2026-05-07 21:20 32.03991 -87.58686 33985 ft 395 kts 227°
2026-05-07 21:20 31.99860 -87.62681 34010 ft 395 kts 227°
2026-05-07 21:21 31.95602 -87.66792 34016 ft 396 kts 227°
2026-05-07 21:21 31.91472 -87.70775 34023 ft 396 kts 226°
2026-05-07 21:22 31.87787 -87.74326 34030 ft 396 kts 227°
2026-05-07 21:22 31.83564 -87.78389 34027 ft 396 kts 227°
2026-05-07 21:23 31.79301 -87.82486 34017 ft 396 kts 227°
2026-05-07 21:23 31.75570 -87.86074 34012 ft 396 kts 226°
2026-05-07 21:24 31.71740 -87.89746 34016 ft 396 kts 226°
2026-05-07 21:24 31.67535 -87.93772 34017 ft 396 kts 226°
2026-05-07 21:25 31.63493 -87.97639 34021 ft 397 kts 226°
2026-05-07 21:25 31.60150 -88.00833 34007 ft 397 kts 226°
2026-05-07 21:26 31.56138 -88.04664 34013 ft 397 kts 226°
2026-05-07 21:26 31.51969 -88.08639 34017 ft 397 kts 226°
2026-05-07 21:27 31.48963 -88.11504 33996 ft 397 kts 226°
2026-05-07 21:27 31.45274 -88.15017 34004 ft 397 kts 226°
2026-05-07 21:28 31.41122 -88.18964 34018 ft 398 kts 226°
2026-05-07 21:28 31.37567 -88.22340 34007 ft 398 kts 226°
2026-05-07 21:29 31.34847 -88.24900 33998 ft 398 kts 226°
2026-05-07 21:29 31.32107 -88.27485 34007 ft 398 kts 226°
2026-05-07 21:30 31.29057 -88.30390 34012 ft 398 kts 226°
2026-05-07 21:30 31.24852 -88.34447 34016 ft 398 kts 225°
2026-05-07 21:31 31.21256 -88.37810 33997 ft 398 kts 225°
2026-05-07 21:31 31.16193 -88.42569 34000 ft 400 kts 225°
2026-05-07 21:32 31.12688 -88.46079 33992 ft 395 kts 234°
2026-05-07 21:32 31.09735 -88.51367 34010 ft 388 kts 246°
2026-05-07 21:33 31.08486 -88.55260 33996 ft 387 kts 257°
2026-05-07 21:33 31.08091 -88.57327 34018 ft 387 kts 257°
2026-05-07 21:33 31.06962 -88.63449 34017 ft 388 kts 257°
2026-05-07 21:34 31.05825 -88.69608 34002 ft 389 kts 257°
2026-05-07 21:34 31.04807 -88.75038 34012 ft 390 kts 257°
2026-05-07 21:35 31.04099 -88.78745 33994 ft 390 kts 257°
2026-05-07 21:35 31.03479 -88.81945 33981 ft 390 kts 261°
2026-05-07 21:36 31.03442 -88.83494 33369 ft 396 kts 275°
2026-05-07 21:36 31.03976 -88.85354 29568 ft 368 kts 308°
2026-05-07 21:36 31.05649 -88.86145 24007 ft 417 kts 343°
2026-05-07 21:36 31.07355 -88.86469 23830 ft 404 kts 335°